This demonstration page uses our WeatherBlox Daily Observations layout. Learn more.

Left ArrowRight Arrow

39.08367, -84.50855

Hourly Observations for August 8, 2020

Temp ( °F °C ) Dew Point ( °F °C ) Humidity (%) Winds ( mph kmh ) Pressure ( in mb ) Visibility ( mi km ) Precip ( " mm )
12:53 am 00:53 Clear 63 17.2 60 15.6 90 90 N N/A 30.16 1021 10 16 N/A
1:53 am 01:53 Clear 62 16.7 61 16.1 96 96 N N/A 30.15 1021 10 16 N/A
2:53 am 02:53 Clear with Mist and Fog 61 16.1 59 15 93 93 N N/A 30.16 1021 4 6 N/A
3:53 am 03:53 Clear 61 16.1 59 15 93 93 N N/A 30.16 1021 7 11 N/A
4:53 am 04:53 Clear with Mist and Fog 60 15.6 59 15 96 96 N N/A 30.16 1021 2 3 N/A
5:03 am 05:03 Clear 61 16.1 59 15 93 93 N N/A 30.17 1022 7 11 N/A
5:53 am 05:53 Clear with Mist and Fog 60 15.6 58 14.4 93 93 N N/A 30.16 1021 6 10 N/A
6:04 am 06:04 Clear with Mist and Fog 59 15 58 14.4 96 96 N N/A 30.17 1022 2 3 N/A
6:13 am 06:13 Clear with Mist and Fog 59 15 58 14.4 96 96 N N/A 30.18 1022 3 5 N/A
6:53 am 06:53 Sunny with Mist and Fog 59 15 58 14.4 96 96 N N/A 30.18 1022 5 8 N/A
7:53 am 07:53 Sunny 62 16.7 60 15.6 93 93 N N/A 30.18 1022 7 11 N/A
8:53 am 08:53 Sunny 67 19.4 62 16.7 84 84 NNE 5 7 30.19 1022 10 16 N/A
9:53 am 09:53 Sunny 71 21.7 63 17.2 76 76 N N/A 30.19 1022 10 16 N/A
10:53 am 10:53 Sunny 75 23.9 63 17.2 66 66 N N/A 30.20 1023 10 16 N/A
11:53 am 11:53 Sunny 79 26.1 62 16.7 56 56 N N/A 30.19 1022 10 16 N/A
12:53 pm 12:53 Mostly Sunny 82 27.8 59 15 46 46 W 7 11 30.19 1022 10 16 N/A
1:53 pm 13:53 Partly Cloudy 84 28.9 60 15.6 44 44 N N/A 30.16 1022 10 16 N/A
2:53 pm 14:53 Sunny 83 28.3 60 15.6 46 46 VRB 5 7 30.16 1021 10 16 N/A
3:53 pm 15:53 Sunny 84 28.9 62 16.7 48 48 VRB 7 11 30.14 1021 10 16 N/A
4:53 pm 16:53 Sunny 84 28.9 61 16.1 46 46 N N/A 30.13 1020 10 16 N/A
5:53 pm 17:53 Sunny 84 28.9 61 16.1 46 46 S 3 6 30.12 1020 10 16 N/A
6:53 pm 18:53 Sunny 83 28.3 63 17.2 51 51 SSE 5 7 30.12 1020 10 16 N/A
7:53 pm 19:53 Sunny 78 25.6 66 18.9 67 67 S 5 7 30.13 1020 10 16 N/A
8:53 pm 20:53 Clear 75 23.9 67 19.4 76 76 N N/A 30.14 1021 10 16 N/A
9:53 pm 21:53 Clear 69 20.6 65 18.3 87 87 N N/A 30.15 1021 10 16 N/A
10:53 pm 22:53 Clear 68 20 64 17.8 87 87 N N/A 30.15 1021 10 16 N/A
11:53 pm 23:53 Clear 66 18.9 63 17.2 90 90 N N/A 30.15 1021 10 16 N/A

Powered by AerisWeather